Regional Weather Roundup
Issued by NWS Upton, NY

Current Version | Previous Version | Text Only | Print | Product List | Glossary On
Versions: 1 2 3 4 5 6 7 8 9 10 11 12 13 14 15 16 17 18 19 20 21 22 23 24 25 26 27 28 29 30 31 32 33 34 35 36 37 38 39 40 41 42 43 44 45 46 47 48 49 50
000
ASUS41 KOKX 241005
RWROKX

REGIONAL WEATHER ROUNDUP
NATIONAL WEATHER SERVICE NEW YORK NY
600 AM EDT THU JUL 24 2014

NOTE: "FAIR" INDICATES FEW OR NO CLOUDS BELOW 12,000 FEET WITH NO
SIGNIFICANT WEATHER AND/OR OBSTRUCTIONS TO VISIBILITY.

NYZ071-072-176-178-NJZ106-104-241100-
NEW YORK CITY METRO AREA


CITY           SKY/WX    TMP DP  RH WIND       PRES   REMARKS
CENTRAL PARK   CLOUDY    73  63  70 VRB3      29.85S
LAGUARDIA APRT MOCLDY    73  64  73 NW8       29.81S
KENNEDY INTL   CLOUDY    74  67  78 N6        29.82S
NEWARK/LIBERTY MOCLDY    73  64  73 NW5       29.82R
BRNX BOT. GARD   N/A     72  64  78 NW7       29.84S
TETERBORO      MOCLDY    74  63  68 N8        29.81S
$$

NYZ177-179-078>081-241100-
LONG ISLAND NEW YORK

CITY           SKY/WX    TMP DP  RH WIND       PRES   REMARKS
FARMINGDALE    PTCLDY    71  67  87 N6        29.81S
ISLIP          MOCLDY    72  66  81 N13       29.79R
SHIRLEY        CLEAR     70  66  87 N8        29.80S
WESTHAMPTON    CLEAR     71  67  87 N9        29.81R
MONTAUK POINT    N/A     69  67  93 NW5       29.79S
$$

NYZ052-065-067-241100-
HUDSON VALLEY

CITY           SKY/WX    TMP DP  RH WIND       PRES   REMARKS
WHITE PLAINS   PTCLDY    69  65  86 NW9       29.82S
NEWBURGH       CLOUDY    68  66  94 CALM      29.87R
MONTGOMERY     CLOUDY    69  65  86 N3        29.86R
POUGHKEEPSIE   CLOUDY    69  65  86 NE3       29.84R
ALBANY         CLOUDY    65  60  84 NW7       29.88R
$$

NJZ001-105-106-008-010-013-015-019>022-104-241100-
NEW JERSEY

CITY           SKY/WX    TMP DP  RH WIND       PRES   REMARKS
NEWARK/LIBERTY MOCLDY    73  64  73 NW5       29.82R
TETERBORO      MOCLDY    74  63  68 N8        29.81S
CALDWELL       CLOUDY    70  62  76 CALM      29.84S
MORRISTOWN     CLOUDY    72  63  73 NW5       29.84R
SOMERVILLE     CLOUDY    69  64  84 CALM      29.82F
LINDEN         CLOUDY    72  65  79 N7        29.84S
SUSSEX         MOCLDY    70  61  73 NW3       29.86S
ANDOVER          N/A     67  61  81 VRB5      29.87R
TRENTON        MOCLDY    69  65  86 NW7       29.85R
MILLVILLE      CLOUDY    71  68  90 NW3       29.85S
ATLANTIC CITY  CLOUDY    71  68  90 NW6       29.84R
WRIGHTSTOWN    MOCLDY    69  66  90 NW3       29.83R
TOMS RIVER     MOCLDY    70  66  88 NW3       29.84R
BELMAR         MOCLDY    70  63  78 NW8       29.82S
$$

PAZ047>061-062-071-241100-
EASTERN PENNSYLVANIA

CITY           SKY/WX    TMP DP  RH WIND       PRES   REMARKS
PHILADELPHIA   LGT RAIN  72  62  71 N13       29.86R
ALLENTOWN      CLOUDY    68  61  78 NW5       29.89R
SCRANTON       CLOUDY    66  58  75 N6        29.93R
$$

CTZ002-004>006-009-010-012-RIZ004-006-007-MAZ004-011-015-241100-
SOUTHERN NEW ENGLAND
 IN CT

CITY           SKY/WX    TMP DP  RH WIND       PRES   REMARKS
BRADLEY INTL   MOCLDY    70  66  87 NW6       29.81R
HARTFORD       CLOUDY    71  66  84 N5        29.80S
DANBURY        MOCLDY    68  63  84 N3        29.85S
WTRBRY/OXFORD  MOCLDY    66  61  82 N10       29.85S
BRIDGEPORT     PTCLDY    71  66  84 NW5       29.81R
MERIDEN        MOCLDY    70  66  87 CALM      29.81R
NEW HAVEN      MOCLDY    72  67  84 NW3       29.80S
CHESTER        PTSUNNY   70  66  88 N9        29.81S
GROTON         MOCLDY    69  69 100 NW6       29.78R
WILLIMANTIC    MOCLDY    70  67  90 N8        29.80S

 IN RI

CITY           SKY/WX    TMP DP  RH WIND       PRES   REMARKS
PROVIDENCE     MOCLDY    71  68  90 NW5       29.78S
BLOCK ISLAND   PTCLDY    70  66  88 NW6       29.78S
WESTERLY       PTCLDY    71  68  90 VRB3      29.78S

 IN MA

CITY           SKY/WX    TMP DP  RH WIND       PRES   REMARKS
BOSTON         CLOUDY    74  67  78 NW13      29.78R
WORCESTER      CLOUDY    66  63  90 NW8       29.83R
WESTFIELD      PTCLDY    69  65  86 N7        29.82R
PROVINCETOWN   MOCLDY    66  66 100 W5        29.77R
NANTUCKET      FOG       68  68 100 SW9       29.77F VSB 1/4
$$

ANZ330-335-338-340-345-350-353-355-241100-
COASTAL MARINE OBSERVATIONS


STATION/POSITION TIME  SKY/WX   TEMP    WIND        PRES    VSBY  WAVE
                                AIR SEA DIR/SP/G                  HT/PER
                 (UTC)          (F)     (DEG/KT/KT) (MB)    (MI)  (FT/S)
NY HARB ENTRANCE NOT AVBL
4S FIRE IS       NOT AVBL
23SW MTP         1000            70 69              1007.6          3/ 5
HUDSON CANYON    1000            74 74  300/ 10/ 12 1008.3          3/ 4
EXECUTION ROCKS  1000            72 71   30/  4/  4   N/A
WESTERN LI SOUND 0900            73     320/  4/  6   N/A           0
CENTRAL LI SOUND 0900            72 73  330/ 10/ 12   N/A           1
EASTERN LI SOUND 0900            69 67  300/  4/  6   N/A
ROBBINS REEF     0900            73     340/  6/  7   N/A
$$


>>>>>>>>>>>>>>>>>>>>>>>>>>>> KEY <<<<<<<<<<<<<<<<<<<<<<<<<<<
>                                                          <
>     SKY/WX - SKY CONDITION/PRESENT WEATHER               <
>     TMP    - TEMPERATURE IN FAHRENHEIT                   <
>     DP     - DEWPOINT IN FAHRENHEIT                      <
>     RH     - RELATIVE HUMIDITY IN PERCENT                <
>     WIND   - DIRECTION AND SPEED IN MPH                  <
>     PRES   - MEAN SEA LEVEL PRESSURE IN INCHES OF HG     <
>     WCI    - WIND CHILL INDEX                            <
>     VSB    - VISIBILITY IN MILES                         <
>     HX     - HEAT INDEX                                  <
>     TC     - TEMPERATURE IN CELSIUS                      <
>     VRB    - VARIABLE WIND DIRECTION                     <
>                                                          <
>>>>>>>>>>>>>>>>>>>>>>>>>>>> KEY <<<<<<<<<<<<<<<<<<<<<<<<<<<





USA.gov is the U.S. government's official web portal to all federal, state and local government web resources and services.